DLH3TW EDDK-EDDS

Flight info

Callsign DLH3TW
Flight time N/A
Altitude 23000
Route KUMIK8F/13L L603 BOMBI N850 KRH T128 BADSO BADSO2A
Aircraft A320/M-SDE3FGHIRWY/LB1

Departure

Time 2026-04-22 09:28
Airport Cologne Bonn Airport (EDDK)

Arrival

Time N/A
Airport Stuttgart Airport (EDDS)
Time Latitude Longitude Altitude Speed Heading
2026-04-22 09:04 50.88105 7.12093 235 ft 0 kts 216°
2026-04-22 09:21 50.88124 7.12113 234 ft 4 kts 205°
2026-04-22 09:21 50.88149 7.12125 233 ft 4 kts 179°
2026-04-22 09:21 50.88170 7.12115 235 ft 2 kts 128°
2026-04-22 09:21 50.88172 7.12112 235 ft 0 kts 126°
2026-04-22 09:25 50.88151 7.12158 233 ft 10 kts 126°
2026-04-22 09:25 50.88107 7.12257 232 ft 12 kts 121°
2026-04-22 09:25 50.88073 7.12380 232 ft 13 kts 123°
2026-04-22 09:25 50.88023 7.12510 232 ft 15 kts 120°
2026-04-22 09:26 50.87984 7.12664 232 ft 16 kts 94°
2026-04-22 09:26 50.87998 7.12761 236 ft 0 kts 72°
2026-04-22 09:26 50.88000 7.12772 237 ft 5 kts 72°
2026-04-22 09:27 50.88009 7.12846 238 ft 8 kts 84°
2026-04-22 09:27 50.87992 7.12973 239 ft 14 kts 116°
2026-04-22 09:27 50.87921 7.13094 239 ft 16 kts 136°
2026-04-22 09:27 50.87784 7.13292 239 ft 49 kts 138°
2026-04-22 09:28 50.87365 7.13907 242 ft 112 kts 137°
2026-04-22 09:28 50.86676 7.14913 274 ft 156 kts 135°
2026-04-22 09:28 50.85871 7.16121 885 ft 158 kts 134°
2026-04-22 09:28 50.85047 7.17275 1687 ft 160 kts 136°
2026-04-22 09:29 50.84165 7.18507 2062 ft 180 kts 136°
2026-04-22 09:29 50.83173 7.19898 2395 ft 199 kts 136°
2026-04-22 09:29 50.82159 7.21444 3076 ft 204 kts 126°
2026-04-22 09:29 50.81530 7.23432 3871 ft 203 kts 103°
2026-04-22 09:30 50.81301 7.25679 4484 ft 216 kts 97°
2026-04-22 09:30 50.81087 7.28171 4886 ft 240 kts 97°
2026-04-22 09:30 50.80857 7.30857 5625 ft 250 kts 97°
2026-04-22 09:30 50.80622 7.33594 6599 ft 253 kts 96°
2026-04-22 09:31 50.80386 7.36325 7458 ft 255 kts 96°
2026-04-22 09:31 50.80145 7.39122 8308 ft 259 kts 96°
2026-04-22 09:31 50.79899 7.41952 9170 ft 262 kts 96°
2026-04-22 09:31 50.79649 7.44822 10036 ft 265 kts 96°
2026-04-22 09:32 50.79392 7.47737 10744 ft 274 kts 97°
2026-04-22 09:32 50.79117 7.50851 10990 ft 298 kts 96°
2026-04-22 09:32 50.78819 7.54222 11197 ft 322 kts 96°
2026-04-22 09:32 50.78536 7.57832 11511 ft 338 kts 92°
2026-04-22 09:33 50.78621 7.61577 12151 ft 343 kts 81°
2026-04-22 09:33 50.79033 7.65315 12879 ft 347 kts 79°
2026-04-22 09:33 50.79457 7.69085 13602 ft 351 kts 79°
2026-04-22 09:33 50.79880 7.72900 14289 ft 355 kts 79°
2026-04-22 09:34 50.80307 7.76767 14920 ft 358 kts 79°
2026-04-22 09:34 50.80737 7.80656 15544 ft 361 kts 79°
2026-04-22 09:34 50.81170 7.84577 16185 ft 364 kts 79°
2026-04-22 09:35 50.82044 7.92516 17440 ft 369 kts 79°
2026-04-22 09:35 50.82484 7.96527 18050 ft 372 kts 79°
2026-04-22 09:35 50.82900 8.00585 18650 ft 376 kts 82°
2026-04-22 09:35 50.82915 8.04741 19129 ft 382 kts 94°
2026-04-22 09:36 50.82382 8.08883 19629 ft 388 kts 105°
2026-04-22 09:36 50.81326 8.12777 20131 ft 394 kts 116°
2026-04-22 09:36 50.79829 8.16445 20617 ft 398 kts 120°
2026-04-22 09:36 50.78281 8.20096 21130 ft 401 kts 120°
2026-04-22 09:37 50.76727 8.23769 21607 ft 404 kts 120°
2026-04-22 09:37 50.75161 8.27464 22096 ft 406 kts 120°
2026-04-22 09:37 50.73582 8.31186 22560 ft 409 kts 120°
2026-04-22 09:37 50.71993 8.34924 23022 ft 412 kts 121°
2026-04-22 09:38 50.70192 8.38490 23297 ft 418 kts 129°
2026-04-22 09:38 50.68010 8.41639 23350 ft 433 kts 139°
2026-04-22 09:38 50.65450 8.44274 23356 ft 445 kts 148°
2026-04-22 09:38 50.62707 8.46574 23355 ft 448 kts 148°
2026-04-22 09:39 50.59951 8.48882 23356 ft 448 kts 148°
2026-04-22 09:39 50.57196 8.51195 23354 ft 448 kts 148°
2026-04-22 09:39 50.54441 8.53513 23350 ft 449 kts 148°
2026-04-22 09:39 50.51687 8.55832 23350 ft 449 kts 148°
2026-04-22 09:40 50.48928 8.58153 23352 ft 450 kts 148°
2026-04-22 09:40 50.46203 8.60438 23347 ft 450 kts 149°
2026-04-22 09:40 50.43329 8.62405 23345 ft 453 kts 158°
2026-04-22 09:40 50.40301 8.63857 23345 ft 454 kts 160°
2026-04-22 09:41 50.37271 8.65268 23342 ft 454 kts 160°
2026-04-22 09:41 50.34247 8.66684 23344 ft 454 kts 160°
2026-04-22 09:41 50.31215 8.68106 23349 ft 454 kts 161°
2026-04-22 09:41 50.28178 8.69533 23341 ft 455 kts 161°
2026-04-22 09:42 50.25145 8.70960 23340 ft 455 kts 161°
2026-04-22 09:42 50.22115 8.72381 23341 ft 455 kts 161°
2026-04-22 09:42 50.19084 8.73798 23342 ft 455 kts 161°
2026-04-22 09:42 50.16047 8.75214 23341 ft 455 kts 161°
2026-04-22 09:43 50.13013 8.76628 23342 ft 455 kts 161°
2026-04-22 09:43 50.09969 8.78011 23341 ft 456 kts 163°
2026-04-22 09:43 50.06827 8.78847 23346 ft 459 kts 173°
2026-04-22 09:43 50.03671 8.78915 23343 ft 461 kts 182°
2026-04-22 09:44 50.00449 8.78219 23342 ft 463 kts 191°
2026-04-22 09:44 49.97352 8.77136 23342 ft 463 kts 191°
2026-04-22 09:44 49.94208 8.76042 23338 ft 463 kts 191°
2026-04-22 09:44 49.92513 8.75454 23337 ft 463 kts 191°